Hovedside
METAR-TAF:

METAR-TAF

Lufthavner :

Torsby, Sverige

breddegrad: 60-09-17N, lengdegrad: 12-59-40E, høyde over havet: 120 m

Gjeldene værobservasjon

Denne rapporten ble laget for 33 minutter siden, klokken 04:20 UTC
Vind 7 kt fra Nordvest
Temperatur 7°C
Luftfuktighet 93%
Trykk 1017 hPa
Sikt 10 km eller mer
Overskyet i en høyde av 600 ft

METAR: ESST 160420Z 32007KT 9999 OVC006 07/06 Q1017

Tid: 06:53 (04:53 UTC)


TAF: fraværende

Værobservasjoner og værvarsel for over 4000 flyplasser (METAR- og TAF-rapporter).

Tilgjengelige stasjoner er representert av de røde og gule prikkene på kartet.

Hold musepekeren over prikken for å se navnet på stasjonen.

Klikk så for å se værobservasjoner og -varsler.

For å forandre kartet kan du klikke på den grønne knappen med svart kryss for å zoome inn, på den grønne knappen med strek for å zoome ut, eller på de grønne pilene for å se tilstøtende kart.


METAR-TAF: